Weather History for Lakehurst NAS, NJ

Change the Weather History Date:

Wednesday, February 13, 2013

  Actual Average Record
Temperature  
Mean Temperature 32 °F -  
Max Temperature 33 °F 44 °F 53 °F (1997)
Min Temperature 21 °F 30 °F 10 °F (2006)
Degree Days  
Heating Degree Days 33    
Moisture  
Dew Point 27 °F    
Average Humidity 76    
Maximum Humidity 96    
Minimum Humidity 47    
Precipitation  
Precipitation 0.00 in - - ()
Sea Level Pressure  
Sea Level Pressure 29.79 in    
Wind  
Wind Speed 2 mph (East)    
Max Wind Speed 9 mph    
Max Gust Speed -    
Averages and records for this station are not official NWS values.
T = Trace of Precipitation, MM = Missing Value Source: NWS Daily Summary

Daily Weather History Graph

Daily Weather History Graph

Search for Another Location

Airport:

Trip Planner

Search our weather history database for the weather conditions in past years. The results will help you decide how hot, cold, wet, or windy it might be!

Date:

Astronomy

Feb. 13, 2013 Rise Set
Actual Time 6:52 AM EST 5:31 PM EST
Civil Twilight 6:24 AM EST 5:59 PM EST
Nautical Twilight 5:52 AM EST 6:30 PM EST
Astronomical Twilight 5:21 AM EST 7:02 PM EST
Moon 8:20 AM EST (2/13) 9:31 PM EST (2/13)
Length of Visible Light 11h 34m
Length of Day
10h 38m
Waxing Crescent, 13% of the Moon is Illuminated
Feb 13
Waxing Crescent
Feb 17
First Quarter
Feb 25
Full
Mar 4
Last Quarter
Mar 11
New

Hourly Weather History & Observations

Time (EST) Temp. Windchill Dew Point Humidity Pressure Visibility Wind Dir Wind Speed Gust Speed Precip Events Conditions
2:00 AM 27.0 °F - 21.9 °F 81% 29.96 in - Calm Calm - N/A   Clear
3:00 AM 24.1 °F - 19.9 °F 84% 29.94 in - Calm Calm - N/A   Clear
4:00 AM 27.0 °F - 23.0 °F 85% 29.91 in - Calm Calm - N/A   Clear
5:00 AM 25.0 °F - 21.9 °F 88% 29.93 in - Calm Calm - N/A   Clear
6:00 AM 21.9 °F - 19.9 °F 92% 29.92 in - Calm Calm - N/A   Clear
7:00 AM 21.9 °F - 19.9 °F 92% 29.91 in - Calm Calm - N/A   Clear
8:00 AM 26.1 °F - 24.1 °F 92% 29.91 in - Calm Calm - N/A   Clear
10:00 AM 39.0 °F 34.0 °F 23.0 °F 53% 29.89 in - East 6.9 mph - N/A   Clear
11:00 AM 41.0 °F 38.0 °F 23.0 °F 49% 29.88 in - East 4.6 mph - N/A   Clear
12:00 PM 41.0 °F 37.1 °F 23.0 °F 49% 29.85 in - East 5.8 mph - N/A   Clear
1:00 PM 43.0 °F 40.3 °F 24.1 °F 47% 29.80 in - East 4.6 mph - N/A   Clear
2:00 PM 42.1 °F 36.6 °F 27.0 °F 55% 29.77 in - ESE 9.2 mph - N/A   Partly Cloudy
3:00 PM 43.0 °F 40.3 °F 27.0 °F 53% 29.76 in - ESE 4.6 mph - N/A   Scattered Clouds
4:00 PM 42.1 °F 36.6 °F 28.0 °F 58% 29.72 in - ENE 9.2 mph - N/A   Mostly Cloudy
5:00 PM 39.9 °F 33.9 °F 28.9 °F 65% 29.69 in - ENE 9.2 mph - N/A   Overcast
5:19 PM 39.2 °F 33.0 °F 28.4 °F 65% 29.70 in - East 9.2 mph - N/A   Overcast
6:00 PM 39.0 °F 34.8 °F 28.9 °F 67% 29.70 in - East 5.8 mph - 0.00 in Rain Light Rain
7:00 PM 37.0 °F 34.5 °F 30.0 °F 76% 29.68 in - NE 3.5 mph - 0.00 in Rain Light Rain
7:22 PM 35.6 °F - 30.2 °F 81% 29.70 in - Calm Calm - 0.00 in Snow Snow
7:42 PM 33.8 °F - 30.2 °F 87% 29.70 in - Calm Calm - 0.00 in Snow Snow
7:55 PM 33.8 °F - 32.0 °F 93% 29.70 in - Calm Calm - 0.00 in Snow Snow
8:00 PM 33.8 °F - 32.0 °F 93% 29.70 in - Calm Calm - 0.00 in Snow Snow
8:06 PM 33.1 °F - 32.0 °F 96% 29.69 in - Calm Calm - 0.00 in Snow Snow
8:33 PM 33.8 °F - 32.0 °F 93% 29.69 in - Calm Calm - 0.00 in Snow Snow
9:00 PM 33.1 °F 30.0 °F 30.9 °F 92% 29.69 in - Variable 3.5 mph - 0.00 in Snow Snow
11:00 PM 33.1 °F 30.0 °F 32.0 °F 96% 29.67 in - Variable 3.5 mph - 0.00 in Snow Snow